GFSSW_sfc_rhum_021.txt.gz
RH
69 70 69 73 75 76 76 76 76 76 75 76 76 77 77 77 82 71 57 31 44 54 66 28 47 44 39 39 46 29 40 39 30 27 26 19 24 18 17 18 18 18 20 19 18
72 70 73 75 76 76 77 77 76 76 76 76 76 76 77 78 85 72 40 49 60 63 40 23 18 36 42 43 53 61 49 33 23 19 23 19 23 22 19 22 21 20 19 18 18
73 72 72 74 76 77 77 77 77 76 74 74 75 76 76 77 66 30 60 60 61 57 53 30 21 21 36 54 57 61 58 40 30 20 23 23 20 18 20 22 19 21 20 17 20
75 73 76 77 77 77 77 77 76 75 75 76 76 75 74 82 8 16 54 52 49 34 49 35 28 29 32 30 41 61 49 44 42 38 39 39 27 26 22 20 17 18 18 21 19
79 78 78 78 79 78 78 78 79 79 79 78 75 71 65 89 77 19 40 38 23 42 50 43 29 29 29 25 23 34 38 39 37 35 33 33 35 32 27 22 20 19 19 20 22
79 78 79 78 78 79 82 82 84 83 82 78 75 72 71 92 42 36 35 32 23 23 25 42 29 24 25 25 23 27 25 23 24 25 31 30 28 25 23 20 20 19 21 20 21
78 79 80 79 79 78 82 85 87 86 83 79 75 66 70 75 46 43 42 45 38 31 26 20 27 24 27 34 26 24 26 22 21 24 22 19 23 23 21 20 20 19 18 18 23
78 82 80 80 78 79 82 87 90 86 82 78 72 73 85 51 51 52 49 50 44 41 29 23 20 21 28 27 26 36 36 36 24 20 21 19 32 22 22 22 22 21 21 20 20
77 83 80 80 78 80 86 90 87 78 73 77 88 86 92 53 55 44 48 45 30 29 25 15 18 22 28 32 40 40 46 42 34 21 20 20 28 22 20 18 20 20 20 20 20
77 82 82 81 83 87 88 88 82 78 70 68 65 87 58 32 26 24 24 35 32 26 24 21 22 26 31 40 46 44 44 40 39 28 23 23 24 20 22 21 21 19 18 18 18
78 81 84 85 85 88 93 86 54 52 48 53 42 43 37 28 24 27 25 27 29 32 34 26 31 32 26 26 28 30 37 43 34 26 28 26 25 23 22 21 19 18 18 19 26
80 80 81 86 87 90 93 72 55 51 65 41 37 37 35 38 42 31 25 35 30 34 33 37 32 26 24 25 27 30 34 36 34 28 29 29 30 25 23 22 22 22 22 22 22
84 84 83 85 90 80 78 57 48 53 69 48 38 34 30 31 38 36 27 33 39 38 34 37 32 22 24 28 30 31 38 37 36 30 24 28 28 24 18 21 18 18 24 25 24
84 86 86 86 72 88 72 47 57 53 80 48 33 29 27 28 39 27 26 30 33 34 31 30 22 22 24 26 27 32 25 29 36 39 43 30 34 20 16 16 19 17 23 25 22
84 83 84 86 97 93 52 68 55 46 71 36 36 22 23 31 27 36 34 29 37 35 30 30 27 25 23 22 19 29 27 30 28 31 47 39 48 28 25 22 18 16 16 20 25
87 83 83 84 97 85 73 65 60 71 71 48 37 42 38 28 30 33 36 38 34 32 31 29 21 23 24 19 18 18 28 31 30 44 56 35 40 28 24 23 22 23 24 23 24
87 88 89 78 69 70 70 67 72 84 49 52 56 45 46 33 35 38 40 49 61 76 62 40 30 22 21 25 26 27 32 50 59 65 51 32 36 27 29 27 24 24 22 21 23
90 92 88 79 86 76 63 67 81 66 70 48 50 49 43 37 43 47 50 65 59 66 74 81 60 36 30 34 34 32 31 50 54 62 46 27 40 33 25 21 16 16 16 23 46
90 97 93 76 77 69 70 91 87 80 61 54 57 55 50 43 49 48 50 71 63 66 68 78 51 34 29 26 32 40 32 23 30 35 44 43 36 27 21 16 17 18 24 44 86
99 98 87 67 66 69 82 78 73 59 43 50 77 65 69 60 62 64 56 58 60 58 67 62 68 45 32 32 27 34 33 32 41 48 54 45 42 34 30 27 26 25 23 60 94
96 85 64 67 66 87 94 85 62 45 46 58 61 59 54 64 65 65 59 50 56 53 62 77 78 58 45 43 37 37 49 44 31 38 54 55 49 34 26 24 23 22 27 86 95
98 81 65 56 77 96 92 69 63 54 51 57 60 56 62 70 73 66 66 60 53 63 76 77 91 97 68 40 34 37 42 50 50 42 47 50 39 21 30 25 35 38 58 90 96
93 99 74 56 95 97 80 68 63 63 63 62 67 60 70 73 86 71 63 50 54 66 82 82 88 92 62 67 58 57 48 55 72 64 59 46 36 23 24 24 46 81 87 92 96
96 96 79 85 87 88 93 86 85 59 70 68 71 66 80 79 75 83 69 52 61 64 60 80 92 79 83 70 67 71 58 62 79 87 52 40 32 24 22 39 35 80 86 92 94
98 91 89 96 93 94 94 87 84 79 80 79 74 72 85 93 82 89 75 71 60 61 90 93 98 85 82 68 67 72 68 62 70 72 82 56 29 23 44 35 37 77 84 88 88
97 97 90 91 92 95 88 85 85 76 83 92 94 82 81 91 85 89 75 82 80 78 93 95 98 88 81 73 73 73 66 63 61 60 60 56 55 32 34 51 71 71 77 81 82
97 94 91 85 83 88 90 79 81 83 75 72 80 86 87 76 66 69 66 69 77 81 95 95 94 82 84 53 73 86 66 67 59 50 50 60 41 39 42 56 80 79 76 72 73

GFSSW_sfc_rhum_024.txt.gz
RH
68 68 72 69 73 73 75 74 75 75 75 75 74 75 76 76 78 68 50 27 49 58 61 34 51 48 44 53 48 33 43 42 32 28 22 22 28 21 18 21 22 21 19 20 24
72 69 69 72 75 76 76 75 75 74 74 74 74 75 76 76 90 77 40 41 48 56 46 32 19 40 39 41 56 43 45 35 23 21 21 20 24 21 20 23 25 24 20 20 24
73 73 74 75 76 77 77 76 76 76 75 75 75 75 74 76 47 14 53 58 48 46 48 42 39 28 49 59 54 66 53 28 24 19 20 22 24 25 25 27 22 23 22 21 23
73 73 75 76 77 77 77 77 77 77 76 77 75 73 71 84 8 10 47 48 44 37 44 48 33 33 36 47 54 70 56 40 36 34 40 40 39 40 32 29 22 20 20 24 22
75 76 76 76 77 77 78 78 79 79 80 77 75 75 72 86 56 35 45 42 27 23 57 56 38 34 38 34 30 49 51 48 43 42 41 36 40 41 37 30 25 22 22 25 26
75 76 76 77 77 77 80 83 85 85 82 81 78 79 74 86 40 42 41 39 28 31 29 53 50 34 29 28 27 28 27 30 35 40 33 34 34 33 30 27 26 24 25 23 26
73 75 78 78 77 78 81 86 89 88 82 77 75 71 73 76 48 45 52 57 48 44 35 24 33 45 31 33 26 28 30 28 26 29 29 23 28 29 23 22 22 22 22 22 23
73 78 79 78 78 79 81 88 90 86 78 74 73 67 90 55 58 57 56 54 46 50 46 28 22 29 34 28 29 37 36 34 24 25 22 24 33 22 24 24 24 22 22 24 26
76 80 80 80 80 82 85 91 87 76 77 74 86 84 89 54 61 51 48 42 34 37 42 23 26 26 29 34 44 44 36 48 35 25 25 23 29 31 23 22 25 25 24 23 20
76 82 82 82 82 86 91 88 77 76 76 70 68 82 50 33 29 28 35 32 41 36 34 33 28 30 35 40 46 50 54 45 44 30 25 28 27 24 21 21 23 25 24 25 24
76 80 83 83 84 88 94 61 63 64 60 60 46 46 40 33 30 35 30 32 31 42 45 32 34 33 32 32 34 32 40 43 39 32 33 30 27 25 26 26 23 21 21 20 20
79 81 82 82 84 88 85 68 58 59 79 48 46 44 36 35 50 34 30 35 36 49 37 38 37 30 27 28 30 31 37 40 34 30 33 38 36 30 27 25 24 24 25 29 32
83 81 81 83 88 83 85 64 60 57 78 54 40 43 41 34 37 37 31 35 41 46 43 42 34 25 25 30 32 36 40 40 38 32 28 32 34 30 24 24 20 20 21 22 25
85 81 80 83 72 93 75 60 69 59 75 46 37 32 30 30 39 32 36 40 37 40 34 36 27 24 27 30 28 36 30 32 38 45 50 35 45 29 24 22 19 18 20 20 29
84 82 80 82 96 85 56 80 72 46 52 42 39 27 32 37 30 34 32 39 45 44 33 32 29 27 28 26 23 32 27 29 30 33 40 36 52 27 26 28 25 19 16 16 22
82 82 82 91 98 88 77 74 58 66 65 57 41 47 49 40 30 35 39 46 48 44 36 37 27 25 26 22 21 21 32 38 42 46 59 33 40 30 24 22 19 22 23 20 20
87 88 84 81 66 81 73 58 67 74 51 56 58 50 54 49 38 44 42 55 86 86 80 46 36 28 25 32 28 27 37 61 69 68 47 35 39 23 30 27 26 25 25 27 30
89 86 91 84 92 83 58 60 77 64 71 52 50 54 48 45 47 50 47 72 61 69 79 90 64 43 36 30 36 35 36 57 58 55 48 31 47 38 26 23 24 24 24 24 26
88 95 90 79 82 70 64 90 85 73 62 58 56 70 63 48 56 56 58 65 57 66 83 83 79 51 44 44 34 40 40 32 34 39 44 46 41 32 21 19 19 22 24 26 28
98 96 81 75 71 64 82 79 75 61 52 56 80 67 74 57 66 74 63 57 58 59 65 62 65 46 37 35 34 36 32 37 43 43 54 48 44 40 30 31 27 29 31 29 71
96 79 67 72 67 85 95 86 68 53 55 64 69 70 63 63 68 74 63 53 60 57 63 70 76 56 47 47 40 39 49 46 38 48 55 57 49 39 30 33 36 43 60 45 95
98 83 67 59 78 96 92 73 67 61 56 63 68 68 67 70 76 72 70 60 57 64 71 77 90 94 67 48 46 49 46 47 56 46 42 53 42 24 33 35 34 33 89 96 90
91 96 79 63 94 97 86 76 69 70 70 78 85 67 67 78 92 76 70 53 58 71 81 80 86 90 61 72 62 66 55 51 68 73 71 48 36 26 23 33 28 34 88 89 86
93 94 87 89 92 92 94 78 89 63 73 78 81 74 85 86 73 96 79 59 63 65 60 80 92 84 78 61 71 77 66 65 80 78 50 45 43 29 26 41 29 38 89 83 88
98 94 92 98 94 95 93 86 85 78 77 82 92 73 93 98 86 88 79 76 60 58 84 90 93 93 83 74 71 71 70 67 72 70 90 64 63 33 42 39 33 66 95 86 89
82 94 96 97 90 95 85 92 86 76 80 73 87 72 84 97 91 95 91 93 93 81 97 96 94 93 80 63 75 82 71 70 70 69 66 66 65 42 35 42 49 74 92 94 88
95 92 96 86 93 95 92 86 79 72 86 74 81 93 88 75 69 71 72 72 77 97 91 97 96 92 91 67 76 85 70 60 57 59 60 73 51 39 47 47 60 80 87 88 89

GFSSW_sfc_rhum_030.txt.gz
RH
66 69 69 72 73 73 74 74 74 74 74 74 74 74 76 76 74 23 17 26 34 62 58 15 10 24 24 25 19 18 21 19 14 11 9 8 8 7 9 12 12 12 12 13 18
71 72 72 73 74 75 75 75 75 75 75 76 75 75 76 76 39 26 43 47 52 55 20 14 9 14 24 23 24 22 22 18 13 12 11 8 8 8 11 13 14 13 14 12 14
72 73 73 74 75 76 76 76 77 77 77 77 76 77 77 64 25 26 59 51 50 37 19 17 16 9 24 21 20 23 23 15 14 13 12 11 9 7 11 13 13 13 14 14 15
73 73 74 75 76 77 77 78 79 79 80 78 78 77 75 36 11 22 44 48 51 23 17 23 22 16 14 19 18 24 20 19 15 14 15 13 11 11 9 10 10 11 13 14 15
73 74 75 76 77 77 78 79 81 82 82 80 79 75 48 21 14 13 43 34 22 20 15 15 23 18 14 13 14 19 19 18 17 17 16 15 14 13 12 11 10 12 15 17 15
74 75 76 76 77 78 79 83 85 85 84 84 77 76 36 15 15 18 21 22 22 19 17 15 18 18 16 14 14 14 14 16 16 19 20 23 20 17 16 14 15 17 18 16 14
74 75 76 76 77 78 80 85 88 88 86 82 74 50 37 19 17 19 21 23 22 23 20 16 14 16 20 19 13 15 18 16 16 17 21 22 26 23 16 15 16 18 17 16 16
73 77 77 78 79 79 81 86 89 85 79 77 74 43 27 18 20 20 17 18 18 23 24 18 17 14 16 19 19 18 17 20 14 15 16 24 32 20 16 16 17 16 15 14 14
74 76 78 79 80 80 84 89 85 77 76 74 50 38 18 30 16 16 17 23 20 18 23 20 20 16 12 20 22 18 18 17 15 12 15 18 25 18 14 14 15 15 14 13 13
76 76 78 79 79 82 88 89 78 76 55 42 37 40 18 17 16 18 17 20 24 22 24 23 19 17 12 14 20 16 16 16 15 12 13 16 19 16 13 14 15 14 14 14 15
76 78 79 78 80 85 66 27 28 29 23 29 24 28 18 16 15 18 17 20 21 24 26 19 19 16 14 12 14 16 16 15 15 12 14 17 18 16 14 14 15 16 16 16 16
77 76 79 79 81 85 53 28 36 37 40 24 25 26 24 21 26 16 18 24 24 26 20 24 25 17 13 12 13 18 22 22 18 16 17 19 19 17 15 15 15 16 16 16 16
82 80 79 78 82 61 32 34 30 34 38 26 21 21 20 17 21 20 18 22 27 25 23 26 20 16 18 18 21 21 23 24 21 19 20 22 24 21 17 17 17 16 17 17 18
83 80 83 80 68 36 32 34 32 38 36 22 21 22 18 17 23 14 18 22 25 28 26 24 18 20 21 20 17 22 16 19 22 24 27 21 27 20 17 17 16 16 16 15 16
84 81 82 80 48 31 39 34 34 39 33 20 21 16 17 22 20 16 16 20 29 28 28 28 25 24 23 18 16 20 15 20 22 24 26 23 23 21 17 18 16 16 14 14 14
85 84 80 62 48 37 36 38 38 40 30 24 21 23 22 18 18 16 18 16 22 35 30 31 24 24 21 15 15 17 18 19 24 26 32 25 23 20 16 15 13 12 11 12 11
86 86 73 37 36 34 36 34 41 34 24 26 28 26 25 23 22 21 23 23 34 54 35 30 29 23 22 24 18 19 24 26 29 34 39 21 22 21 16 12 12 13 13 12 13
88 85 74 37 36 42 36 32 49 31 27 26 29 28 30 26 26 27 26 25 25 42 43 50 42 36 27 25 27 24 24 24 27 23 20 19 25 17 14 12 12 14 14 16 18
90 46 40 39 40 38 35 42 44 34 33 37 34 32 27 27 28 29 27 26 28 31 54 47 44 24 30 24 22 27 36 25 22 21 16 14 19 15 13 14 14 16 19 23 30
47 42 36 38 44 41 39 49 37 33 35 37 52 35 40 33 35 32 30 25 27 25 33 39 53 27 30 29 28 33 40 76 23 33 26 16 18 16 15 15 14 19 20 27 41
48 39 37 36 40 33 62 33 38 34 36 45 45 44 40 45 34 35 35 28 28 29 28 32 45 38 30 39 31 60 60 56 33 21 22 18 15 14 20 22 22 19 20 36 47
48 34 38 33 36 47 39 33 55 41 38 43 43 45 47 43 47 37 40 38 28 31 39 32 49 46 32 24 28 41 57 64 79 44 21 27 23 20 22 19 22 20 20 35 62
55 42 34 36 67 44 26 33 38 44 43 45 51 45 43 50 70 46 43 32 33 38 42 45 48 48 28 35 32 31 28 46 44 56 54 23 22 20 16 17 20 22 19 23 63
48 49 33 32 37 41 40 41 44 38 42 45 52 44 50 57 47 67 52 40 38 40 52 60 57 51 46 31 30 34 31 26 32 47 36 27 22 21 19 18 20 24 19 22 63
45 46 55 48 52 50 48 48 49 53 45 45 50 51 62 79 54 58 44 44 51 58 64 74 85 49 39 33 29 32 29 28 33 29 34 33 22 18 19 20 23 24 19 18 57
67 68 54 52 54 57 55 42 44 42 42 45 54 51 56 73 66 74 57 68 97 75 80 88 89 57 53 38 29 32 29 26 25 27 28 25 24 19 20 18 21 21 18 19 26
68 69 83 60 56 65 59 53 53 50 43 41 51 60 62 52 46 45 50 58 73 97 98 97 94 68 67 35 32 38 27 24 23 23 26 29 24 19 19 20 22 24 21 20 24

GFSSW_sfc_rhum_033.txt.gz
RH
70 72 73 73 74 75 75 76 76 76 77 77 77 78 77 78 78 28 21 36 33 62 57 13 11 10 18 19 17 15 22 20 14 12 10 6 6 5 6 8 10 11 12 12 12
71 72 72 73 74 75 76 77 78 78 79 79 79 79 79 79 45 16 49 51 51 55 16 11 10 9 14 18 20 22 22 19 12 10 10 8 6 6 7 9 11 12 12 12 14
71 72 73 74 75 76 77 78 79 79 80 80 80 80 80 66 25 26 59 48 53 48 14 13 11 11 10 15 16 22 23 16 13 11 10 11 9 6 6 10 11 13 12 12 12
72 73 73 74 75 76 77 78 79 80 81 82 82 80 79 44 15 18 46 47 49 26 12 13 13 14 12 11 15 20 18 18 16 13 11 12 11 10 7 7 8 10 11 11 13
74 73 74 75 76 77 78 79 80 82 83 84 83 79 57 25 11 12 37 38 16 14 12 10 13 13 14 10 10 15 16 14 14 15 15 13 14 12 10 7 6 7 10 11 12
72 75 77 76 77 78 79 82 85 85 85 84 82 78 45 21 12 13 15 16 14 14 14 11 10 11 13 12 12 10 10 10 11 14 15 16 16 14 12 10 9 8 9 10 12
74 75 74 76 78 78 80 84 87 86 86 83 80 46 27 15 12 12 13 12 14 16 16 13 12 13 14 17 12 11 13 12 11 10 13 15 21 21 15 13 12 11 11 12 14
76 79 77 78 79 79 80 85 88 85 82 76 73 39 24 11 10 10 10 12 12 14 17 15 14 15 12 10 11 16 14 15 12 11 11 14 22 17 15 15 15 14 12 12 13
76 80 78 77 78 79 82 86 86 79 76 72 56 33 20 23 11 10 12 15 14 14 13 15 16 16 13 11 13 13 18 14 11 9 11 13 18 15 15 16 16 15 14 13 14
76 80 79 80 79 82 86 89 69 75 64 37 26 29 16 12 11 12 12 13 15 16 18 18 18 18 12 12 12 10 10 11 13 9 9 12 14 13 12 14 17 16 14 13 13
78 80 79 79 80 84 70 30 32 42 23 17 17 15 12 10 11 12 11 14 14 17 22 17 18 18 13 12 11 10 10 12 9 7 10 12 12 11 11 13 14 14 14 15 15
81 78 78 80 82 85 59 22 27 25 32 17 16 15 13 14 18 12 10 15 18 20 16 16 20 15 13 13 13 13 14 12 11 10 12 14 14 12 11 12 12 14 14 14 14
82 84 82 82 84 66 23 26 20 24 31 19 14 15 13 12 16 15 12 14 19 18 17 18 15 12 14 16 17 15 15 16 14 14 13 16 19 17 12 12 12 12 13 12 14
86 86 82 83 75 20 26 24 21 26 33 22 16 15 12 13 17 12 10 15 17 20 17 17 14 14 16 17 16 20 12 14 16 20 23 16 24 20 17 16 15 14 14 14 14
85 86 84 88 35 23 27 23 23 31 42 17 14 11 13 15 15 14 10 15 20 17 18 19 17 17 19 18 14 17 12 14 15 17 20 19 21 18 15 16 14 14 14 14 14
84 86 84 56 34 24 22 26 30 43 39 18 15 16 16 14 14 12 13 12 13 16 17 19 15 26 18 16 14 13 14 17 17 17 23 23 20 19 16 15 13 12 11 11 11
86 86 77 30 28 21 24 28 42 36 19 19 19 17 18 18 16 16 18 18 18 28 26 22 20 24 23 21 16 16 20 23 28 26 30 22 23 21 16 13 11 11 10 10 11
88 89 65 26 23 26 29 33 50 24 21 19 21 20 21 17 17 18 19 18 14 19 28 42 49 49 23 24 27 21 22 24 34 28 21 16 26 20 15 12 12 11 11 11 12
89 42 34 30 30 27 32 41 39 26 21 27 26 25 20 16 19 19 21 18 17 18 33 35 45 22 20 19 31 28 26 23 32 32 35 33 24 14 14 12 12 13 13 16 18
48 32 28 31 32 34 37 47 28 23 24 27 38 28 29 25 26 24 23 20 19 17 19 31 44 25 18 19 18 27 22 46 73 46 41 32 24 17 16 15 13 14 17 17 26
49 32 34 28 28 36 51 26 22 22 26 35 36 34 33 34 29 31 29 23 23 21 21 24 31 29 21 29 32 69 56 46 44 38 48 30 30 14 15 14 14 16 18 28 39
44 35 31 23 37 41 34 22 40 28 28 32 35 37 42 37 38 36 38 29 26 26 30 27 39 41 27 17 20 20 36 42 87 81 28 30 34 29 19 16 20 18 19 26 49
41 32 28 30 67 45 28 23 19 28 32 33 40 36 37 43 60 44 34 24 24 32 41 48 51 59 36 22 18 24 28 29 33 42 62 78 67 43 19 20 21 21 18 34 51
38 36 29 34 31 42 42 37 30 25 29 36 44 41 43 40 34 43 37 30 47 60 70 71 64 60 49 31 83 82 59 26 37 65 47 46 43 66 27 18 19 22 20 18 50
33 39 44 36 38 45 48 41 35 35 31 34 38 38 40 60 44 46 41 42 46 63 71 87 92 59 43 30 26 28 22 19 23 24 38 28 31 56 50 33 18 19 18 17 39
42 47 40 45 41 50 56 48 38 32 35 38 44 39 46 64 59 63 50 56 78 82 87 88 92 64 60 38 28 24 19 17 18 18 18 20 21 18 21 18 18 18 17 18 23
65 65 68 57 39 40 49 58 54 52 42 34 40 44 44 38 36 36 39 43 52 79 98 100 96 73 62 35 31 34 20 17 16 16 16 19 17 15 16 18 20 19 17 18 19